Location: Saratoga
(37.5089°N, 89.1570°W)
Time: 20:12:20
(UTC+00:00)

Daily predictions for brighter satellites

Satellite Brightness Start Highest point End
(mag) Time Altitude Azimuth Time Altitude Azimuth Time Altitude Azimuth
Envisat 3.0 12:00:17 10° N 12:05:22 78° WNW 12:10:26 10° SSW
USA 234 3.7 12:08:28 10° NNE 12:14:31 42° NW 12:20:34 10° WSW
Meteor 1-4 Rocket 2.9 12:11:25 10° NNW 12:14:39 38° W 12:17:51 10° SSW
Cosmos 1937 Rocket 3.8 12:10:03 10° S 12:15:08 72° ESE 12:20:17 10° NNE
Cosmos 2084 3.6 12:11:12 10° NW 12:15:40 64° WSW 12:20:05 10° SSE
Cosmos 1515 Rocket 3.6 12:12:21 10° NNW 12:16:48 70° W 12:21:13 10° S
ATLAS 2AS CENTAUR R/B 3.2 12:09:28 10° SW 12:17:11 54° NW 12:24:55 10° NNE
H-2A R/B 2.4 12:14:11 10° N 12:17:58 53° WNW 12:21:40 10° SSW
FALCON 9 DEB 3.2 12:14:56 10° SW 12:18:07 74° SE 12:21:19 10° NE
Cosmos 1862 3.4 12:14:31 10° S 12:18:33 89° E 12:22:37 10° N
Okean O Rocket 1.9 12:15:40 10° NNE 12:20:06 79° ESE 12:24:33 10° S
CENTAUR R/B 3.5 12:15:13 10° NW 12:23:24 56° WSW 12:31:59 10° S
DELTA 2 R/B (1) 4.0 22:56:31 10° WNW 23:02:02 66° SSW 23:07:31 10° ESE
USA 215 3.3 22:56:30 10° NE 23:03:04 81° SE 23:09:37 10° SW
Cosmos 2237 Rocket 2.3 23:00:09 10° S 23:05:38 58° ESE 23:11:09 10° NNE
H-2A R/B 2.6 23:01:53 10° SSE 23:06:18 83° ENE 23:10:35 10° N
COSMO-SKYMED 1 4.0 23:05:54 10° NE 23:09:04 19° E 23:12:13 10° SE
Cosmos 1743 Rocket 3.6 23:05:03 10° N 23:09:30 63° E 23:13:54 10° SSE
Okean O Rocket 1.7 23:10:05 10° SSE 23:14:16 51° ENE 23:18:30 10° N
YAOGAN 6 2.6 23:11:19 10° SSE 23:15:00 89° WSW 23:18:40 10° NNW
CRYOSAT 2 4.5 23:11:34 10° NNE 23:16:23 58° E 23:21:12 10° S
Cosmos 405 Rocket 2.7 23:13:42 10° N 23:17:35 64° E 23:21:31 10° SSE
Envisat 3.3 23:12:40 10° S 23:17:43 74° WSW 23:22:48 10° NNW
Sich 1 3.9 23:16:46 10° NNE 23:20:36 29° ENE 23:24:23 10° SE
CORIOLIS 4.2 23:16:51 10° SSE 23:22:09 62° ENE 23:27:30 10° N
Cosmos 1980 3.7 23:17:54 10° SSW 23:23:35 89° E 23:29:18 10° NNE
H-2A R/B 3.8 23:25:29 11° ENE 23:26:04 11° ENE 23:27:37 10° NE
Cosmos 1805 Rocket 3.7 23:25:23 10° N 23:29:44 50° E 23:34:02 10° SSE
Cosmos 389 Rocket 2.7 23:29:01 10° S 23:32:18 46° E 23:35:37 10° NNE
USA 267 4.1 23:27:58 10° E 23:33:24 30° NNE 23:38:51 10° NNW
Cosmos 1151 Rocket 4.1 23:30:27 10° SE 23:33:54 24° E 23:37:21 10° NE
Cosmos 1666 Rocket 4.5 23:32:01 10° NNE 23:35:45 27° ENE 23:39:30 10° SE
Cosmos 1606 2.7 23:33:05 10° S 23:36:55 60° E 23:40:45 10° NNE
SMAP 3.2 23:32:19 10° S 23:36:58 78° WSW 23:41:38 10° NNW
BREEZE-M DEB (TANK) 3.5 23:43:41 10° W 23:46:16 25° NW 23:47:24 16° NNE
SL-16 R/B 2.4 23:47:31 10° S 23:52:56 50° ESE 23:57:37 14° NE
Lacrosse 5 rocket 1.7 23:51:19 10° SSW 23:54:45 37° SE 23:55:53 29° E
Cosmos 1943 Rocket 3.7 23:51:40 10° NNE 23:54:14 16° NE 23:54:14 16° NE
H-2A R/B 4.2 23:52:06 10° NNW 23:55:30 24° WNW 23:58:55 10° WSW
Abrixas rocket 2.2 23:52:55 10° NW 23:55:33 40° NNE 23:55:50 38° NE
